Puyallup, WA
on Thursday, November 8, 2012

Thursday
Previous Day Next Day
Daily Summary
 ActualAverage (KSEA)Record (KSEA)
Temperature
Mean Temperature °F 47°F  
Max Temperature 50°F 53°F 64°F (1952)
Min Temperature 28°F 42°F 27°F (1948)
Degree Days
Heating Degree Days 26 18  
Month to date heating degree days 137  
Since 1 July heating degree days 734  
Cooling Degree Days 0 0  
Month to date cooling degree days 0  
Year to date cooling degree days 189  
Moisture
Dew Point 34°F   
Average Humidity 89    
Maximum Humidity 100    
Minimum Humidity 58    
Precipitation
Precipitation 0.00 in 0.22 in 0.85 in (2000)
Month to date precipitation 1.61  
Year to date precipitation 27.18  
Snow
Snow 0.00 in in T in (1992)
Month to date snowfall  
Since 1 July snowfall  
Snow Depth in   
Wind
Wind Speed 0 mph   
Max Wind Speed 5 mph   
Max Gust Speed mph   
Visibility 10 miles   
Events Rain   

Key: T is trace of precipitation, MM is missing value
Source: NWS Daily Summary
Time(PST)TemperatureDew PointHumidity Pressure Visibility Wind DirectionWind SpeedGust SpeedPrecipitationEvents Conditions
12:15 AM 32.0°F 32.0°F 100% 29.94 in 10.0 miles Calm Calm - N/A   Clear
12:35 AM 32.0°F 32.0°F 100% 29.93 in 10.0 miles Calm Calm - N/A   Clear
12:55 AM 32.0°F 32.0°F 100% 29.93 in 10.0 miles Calm Calm - N/A   Clear
1:15 AM 32.0°F 32.0°F 100% 29.92 in 10.0 miles Calm Calm - N/A   Clear
1:35 AM 32.0°F 32.0°F 100% 29.91 in 9.0 miles Calm Calm - N/A   Clear
1:55 AM 32.0°F 32.0°F 100% 29.91 in 10.0 miles Calm Calm - N/A   Clear
2:15 AM 30.2°F 30.2°F 100% 29.90 in 10.0 miles Calm Calm - N/A   Clear
2:35 AM 32.0°F 32.0°F 100% 29.89 in 10.0 miles Calm Calm - N/A   Clear
2:55 AM 30.2°F 30.2°F 100% 29.89 in 10.0 miles Calm Calm - N/A   Clear
3:15 AM 28.4°F 28.4°F 100% 29.88 in 10.0 miles Calm Calm - N/A   Clear
3:35 AM 30.2°F 30.2°F 100% 29.88 in 10.0 miles Calm Calm - N/A   Clear
3:55 AM 30.2°F 30.2°F 100% 29.87 in 10.0 miles Calm Calm - N/A   Clear
4:15 AM 32.0°F 32.0°F 100% 29.87 in 10.0 miles Calm Calm - N/A   Clear
4:35 AM 30.2°F 30.2°F 100% 29.86 in 10.0 miles Calm Calm - N/A   Clear
4:55 AM 28.4°F 28.4°F 100% 29.86 in 7.0 miles Calm Calm - N/A   Clear
5:15 AM 30.2°F 30.2°F 100% 29.86 in 10.0 miles Calm Calm - N/A   Clear
5:35 AM 28.4°F 28.4°F 100% 29.85 in 10.0 miles Calm Calm - N/A   Clear
5:55 AM 28.4°F 28.4°F 100% 29.85 in 10.0 miles Calm Calm - N/A   Clear
6:15 AM 28.4°F 28.4°F 100% 29.84 in 10.0 miles Calm Calm - N/A   Partly Cloudy
6:35 AM 28.4°F 28.4°F 100% 29.84 in 10.0 miles Calm Calm - N/A   Clear
6:55 AM 28.4°F 28.4°F 100% 29.84 in 10.0 miles Calm Calm - N/A   Clear
7:15 AM 28.4°F 28.4°F 100% 29.84 in 10.0 miles Calm Calm - N/A   Clear
7:35 AM 28.4°F 28.4°F 100% 29.84 in 10.0 miles Calm Calm - N/A   Clear
7:55 AM 28.4°F 28.4°F 100% 29.84 in 10.0 miles Calm Calm - N/A   Clear
8:15 AM 32.0°F 32.0°F 100% 29.84 in 10.0 miles Calm Calm - N/A   Clear
8:35 AM 32.0°F 32.0°F 100% 29.84 in 10.0 miles Calm Calm - N/A Rain Light Rain
9:15 AM 37.4°F 37.4°F 100% 29.83 in 10.0 miles Calm Calm - N/A   Clear
9:35 AM 37.4°F 37.4°F 100% 29.83 in 10.0 miles Calm Calm - N/A   Clear
9:55 AM 41.0°F 37.4°F 87% 29.83 in 10.0 miles North 4.6 mph - N/A   Clear
10:15 AM 41.0°F 37.4°F 87% 29.83 in 10.0 miles Calm Calm - N/A   Clear
10:35 AM 42.8°F 37.4°F 81% 29.83 in 10.0 miles Calm Calm - N/A   Clear
10:55 AM 44.6°F 37.4°F 76% 29.83 in 10.0 miles Calm Calm - N/A   Clear
11:15 AM 44.6°F 37.4°F 76% 29.82 in 10.0 miles Calm Calm - N/A   Clear
11:35 AM 44.6°F 37.4°F 76% 29.82 in 10.0 miles Calm Calm - N/A   Clear
11:55 AM 44.6°F 37.4°F 76% 29.82 in 10.0 miles Calm Calm - N/A   Clear
12:15 PM 46.4°F 37.4°F 71% 29.82 in 10.0 miles Calm Calm - N/A   Clear
12:35 PM 48.2°F 37.4°F 66% 29.81 in 10.0 miles North 3.5 mph - N/A   Scattered Clouds
12:55 PM 48.2°F 35.6°F 62% 29.81 in 10.0 miles Calm Calm - N/A   Partly Cloudy
1:15 PM 48.2°F 35.6°F 62% 29.81 in 10.0 miles Calm Calm - N/A   Clear
1:35 PM 48.2°F 35.6°F 62% 29.80 in 10.0 miles Calm Calm - N/A   Clear
1:55 PM 48.2°F 35.6°F 62% 29.80 in 10.0 miles North 4.6 mph - N/A   Clear
2:15 PM 50.0°F 35.6°F 58% 29.80 in 10.0 miles NE 4.6 mph - N/A   Clear
2:35 PM 50.0°F 35.6°F 58% 29.80 in 10.0 miles NE 3.5 mph - N/A   Clear
2:55 PM 48.2°F 35.6°F 62% 29.80 in 10.0 miles Calm Calm - N/A   Clear
3:15 PM 48.2°F 35.6°F 62% 29.80 in 10.0 miles NNE 4.6 mph - N/A   Clear
3:35 PM 48.2°F 35.6°F 62% 29.81 in 10.0 miles North 4.6 mph - N/A   Scattered Clouds
3:55 PM 46.4°F 37.4°F 71% 29.81 in 10.0 miles NE 3.5 mph - N/A   Mostly Cloudy
4:15 PM 46.4°F 35.6°F 66% 29.81 in 10.0 miles Calm Calm - N/A   Scattered Clouds
4:35 PM 44.6°F 35.6°F 71% 29.82 in 10.0 miles Calm Calm - N/A   Partly Cloudy
4:55 PM 44.6°F 35.6°F 71% 29.81 in 10.0 miles Calm Calm - N/A   Clear
5:15 PM 41.0°F 35.6°F 81% 29.82 in 10.0 miles Calm Calm - N/A   Clear
5:35 PM 39.2°F 35.6°F 87% 29.82 in 10.0 miles Calm Calm - N/A   Clear
5:55 PM 39.2°F 35.6°F 87% 29.82 in 10.0 miles Calm Calm - N/A   Clear
6:15 PM 39.2°F 35.6°F 87% 29.82 in 10.0 miles Calm Calm - N/A   Scattered Clouds
6:35 PM 39.2°F 35.6°F 87% 29.83 in 10.0 miles Calm Calm - N/A   Scattered Clouds
6:55 PM 37.4°F 35.6°F 93% 29.83 in 10.0 miles Calm Calm - N/A   Partly Cloudy
7:15 PM 37.4°F 35.6°F 93% 29.83 in 10.0 miles Calm Calm - N/A   Clear
7:35 PM 35.6°F 35.6°F 100% 29.82 in 10.0 miles Calm Calm - N/A   Clear
7:55 PM 35.6°F 35.6°F 100% 29.82 in 10.0 miles Calm Calm - N/A   Partly Cloudy
8:15 PM 35.6°F 35.6°F 100% 29.83 in 10.0 miles Calm Calm - N/A   Mostly Cloudy
8:35 PM 35.6°F 35.6°F 100% 29.83 in 10.0 miles Calm Calm - N/A   Mostly Cloudy
8:55 PM 35.6°F 35.6°F 100% 29.84 in 10.0 miles Calm Calm - N/A   Overcast
9:15 PM 35.6°F 35.6°F 100% 29.84 in 10.0 miles Calm Calm - N/A   Overcast
9:35 PM 35.6°F 35.6°F 100% 29.84 in 10.0 miles Calm Calm - N/A   Overcast
9:55 PM 35.6°F 35.6°F 100% 29.84 in 10.0 miles Calm Calm - N/A   Overcast
10:15 PM 35.6°F 35.6°F 100% 29.84 in 10.0 miles Calm Calm - N/A   Overcast
10:35 PM 37.4°F 35.6°F 93% 29.84 in 10.0 miles Calm Calm - N/A   Overcast
10:55 PM 37.4°F 37.4°F 100% 29.84 in 10.0 miles Calm Calm - N/A   Overcast
11:15 PM 37.4°F 37.4°F 100% 29.84 in 10.0 miles Calm Calm - N/A   Overcast
11:35 PM 37.4°F 37.4°F 100% 29.85 in 10.0 miles Calm Calm - N/A   Overcast
11:55 PM 37.4°F 37.4°F 100% 29.85 in 10.0 miles Calm Calm - N/A   Overcast
Moon Phase
Nov. 08 Nov. 13 Nov. 20 Nov. 28 Dec. 06
Sunrise:07:03 AM (PST) Moon Rise:12:42 AM (PST)11/8
Sunset:04:41 PM (PST) Moon Set:01:45 PM (PST)11/8

Copyright © 2014 The Weather Underground, Inc.